This is the latest recevied weather packets stored in our database for station/object KI6SYE. If no packets are shown the sender has not sent any weather packets the latest 10 day(s).
| Time | Temp. | Humidity | Pressure | Rain* | Wind** | Luminosity | Snow |
|---|---|---|---|---|---|---|---|
| 1788383585 | 23.33° C | 69% | 1015.3 hPa | 0 mm | - | 675 W/m² | - |
| 1788383280 | 23.33° C | 69% | 1015.4 hPa | 0 mm | - | 680 W/m² | - |
| 1788382975 | 22.78° C | 72% | 1015.5 hPa | 0 mm | - | 688 W/m² | - |
| 1788382673 | 22.78° C | 70% | 1015.7 hPa | 0 mm | - | 694 W/m² | - |
| 1788382368 | 22.78° C | 72% | 1015.6 hPa | 0 mm | - | 699 W/m² | - |
| 1788382063 | 23.33° C | 71% | 1015.5 hPa | 0 mm | - | 704 W/m² | - |
| 1788381758 | 22.78° C | 73% | 1015.5 hPa | 0 mm | - | 709 W/m² | - |
| 1788381452 | 23.33° C | 72% | 1015.8 hPa | 0 mm | - | 714 W/m² | - |
| 1788381147 | 23.33° C | 71% | 1015.7 hPa | 0 mm | - | 717 W/m² | - |
| 1788380842 | 23.33° C | 73% | 1015.8 hPa | 0 mm | - | 721 W/m² | - |
| 1788380539 | 22.78° C | 73% | 1015.5 hPa | 0 mm | - | 725 W/m² | - |
| 1788380236 | 23.33° C | 72% | 1015.7 hPa | 0 mm | - | 728 W/m² | - |
| 1788379934 | 22.78° C | 72% | 1015.4 hPa | 0 mm | - | 729 W/m² | - |
| 1788379629 | 22.78° C | 73% | 1015.8 hPa | 0 mm | - | 731 W/m² | - |
| 1788379325 | 22.78° C | 72% | 1015.7 hPa | 0 mm | - | 731 W/m² | - |
| 1788379020 | 22.78° C | 73% | 1016 hPa | 0 mm | - | 732 W/m² | - |
| 1788378720 | 22.78° C | 73% | 1015.7 hPa | 0 mm | - | 733 W/m² | - |
| 1788378419 | 22.78° C | 72% | 1015.8 hPa | 0 mm | - | 734 W/m² | - |
| 1788378114 | 22.78° C | 73% | 1016 hPa | 0 mm | - | 733 W/m² | - |
| 1788377810 | 23.33° C | 73% | 1016 hPa | 0 mm | - | 732 W/m² | - |
| 1788377505 | 22.78° C | 72% | 1015.9 hPa | 0 mm | - | 731 W/m² | - |
| 1788377203 | 22.78° C | 73% | 1015.9 hPa | 0 mm | - | 730 W/m² | - |
| 1788376902 | 22.78° C | 72% | 1016 hPa | 0 mm | - | 730 W/m² | - |
| 1788376597 | 22.78° C | 74% | 1016.1 hPa | 0 mm | - | 726 W/m² | - |
| 1788376297 | 22.78° C | 74% | 1016.3 hPa | 0 mm | - | 723 W/m² | - |
* Rain latest hour (hover to see other rain measurements)
** Current wind speed in m/s (hover to see current wind gust speed)